Flagstaff, AZ

10:55 PM MST on April 24, 2017 (GMT -0700)
Flagstaff Pulliam

Weather History for KFLG - December, 2013

Change the Weather History Date:

Sunday, December 1, 2013

  Actual Average Record
Temperature  
Mean Temperature 31 °F 32 °F  
Max Temperature 40 °F 45 °F 66 °F (2008)
Min Temperature 22 °F 19 °F -7 °F (1905)
Degree Days  
Heating Degree Days 34 33  
Month to date heating degree days 34 33  
Since 1 July heating degree days 1789 1765  
Cooling Degree Days 0 0  
Month to date cooling degree days 0 0  
Year to date cooling degree days 148 117  
Moisture  
Dew Point 26 °F    
Average Humidity 85    
Maximum Humidity 100    
Minimum Humidity 70    
Precipitation  
Precipitation 0.00 in 0.05 in 1.38 in (2007)
Month to date precipitation 0.00 0.05  
Year to date precipitation 23.44 20.04  
Snow  
Snow 0.00 in 0.50 in 6.00 in (2011)
Month to date snowfall 0.0 0.5  
Since 1 July snowfall 12.0 12.7  
Snow Depth 0.00 in    
Sea Level Pressure  
Sea Level Pressure 30.34 in    
Wind  
Wind Speed 5 mph (NE)    
Max Wind Speed 12 mph    
Max Gust Speed 15 mph    
Visibility 3 miles    
Events Fog    
T = Trace of Precipitation, MM = Missing Value Source: NWS Daily Summary

Daily Weather History Graph

Daily Weather History Graph

Search for Another Location

Airport or City:

Trip Planner

Search our weather history database for the weather conditions in past years. The results will help you decide how hot, cold, wet, or windy it might be!

Date:

Astronomy

Dec. 01, 2013 Rise Set
Actual Time 7:16 AM MST 5:14 PM MST
Civil Twilight 6:49 AM MST 5:42 PM MST
Nautical Twilight 6:17 AM MST 6:13 PM MST
Astronomical Twilight 5:47 AM MST 6:44 PM MST
Moon 5:41 AM MST (12/1) 4:25 PM MST (12/1)
Length of Visible Light 10h 53m
Length of Day
9h 57m
Waning Crescent, 2% of the Moon is Illuminated
Dec 1
Waning Crescent
Dec 2
New
Dec 9
First Quarter
Dec 17
Full
Dec 25
Last Quarter

Hourly Weather History & Observations

Time (MST) Temp. Windchill Dew Point Humidity Pressure Visibility Wind Dir Wind Speed Gust Speed Precip Events Conditions
12:27 AM 27.0 °F 21.6 °F 26.1 °F 96% 30.32 in 0.2 mi NE 4.6 mph - N/A Fog Light Freezing Fog
12:57 AM 27.0 °F 21.6 °F 26.1 °F 96% 30.31 in 0.2 mi ENE 4.6 mph - N/A Fog Light Freezing Fog
1:57 AM 26.1 °F 17.6 °F 25.0 °F 96% 30.29 in 0.2 mi ENE 8.1 mph - N/A Fog Light Freezing Fog
2:17 AM 27.0 °F 16.7 °F 25.0 °F 92% 30.32 in 0.5 mi NE 11.5 mph - N/A Fog Light Freezing Fog
2:26 AM 27.0 °F 18.0 °F 25.0 °F 92% 30.32 in 0.2 mi NE 9.2 mph - N/A Fog Light Freezing Fog
2:38 AM 27.0 °F 20.5 °F 26.1 °F 96% 30.33 in 0.5 mi NNE 5.8 mph - N/A Fog Light Freezing Fog
2:57 AM 27.0 °F 19.5 °F 25.0 °F 92% 30.30 in 0.2 mi NE 6.9 mph - N/A Fog Light Freezing Fog
3:57 AM 27.0 °F 20.5 °F 25.0 °F 92% 30.31 in 0.2 mi North 5.8 mph - N/A Fog Light Freezing Fog
4:57 AM 27.0 °F 21.6 °F 24.1 °F 89% 30.32 in 0.5 mi NE 4.6 mph - N/A Fog Light Freezing Fog
5:24 AM 26.1 °F 19.4 °F 23.0 °F 88% 30.32 in 0.2 mi NE 5.8 mph - N/A Fog Light Freezing Fog
5:41 AM 26.1 °F 20.5 °F 24.1 °F 92% 30.32 in 0.5 mi NE 4.6 mph - N/A Fog Light Freezing Fog
5:57 AM 26.1 °F 20.5 °F 24.1 °F 92% 30.35 in 0.5 mi NE 4.6 mph - N/A Fog Light Freezing Fog
6:07 AM 26.1 °F 16.8 °F 24.1 °F 92% 30.33 in 0.8 mi NE 9.2 mph - N/A   Mist
6:33 AM 27.0 °F 18.7 °F 24.1 °F 89% 30.34 in 0.5 mi ENE 8.1 mph - N/A Fog Light Freezing Fog
6:57 AM 27.0 °F 17.3 °F 24.1 °F 89% 30.38 in 0.5 mi NE 10.4 mph - N/A Fog Light Freezing Fog
7:06 AM 27.0 °F 18.7 °F 24.1 °F 89% 30.37 in 0.8 mi NE 8.1 mph - N/A   Mist
7:29 AM 27.0 °F 20.5 °F 25.0 °F 92% 30.37 in 1.0 mi ENE 5.8 mph - N/A   Mist
7:33 AM 28.0 °F 21.7 °F 25.0 °F 88% 30.36 in 0.8 mi NE 5.8 mph - N/A   Overcast
7:41 AM 27.0 °F 19.5 °F 24.1 °F 89% 30.36 in 0.2 mi NE 6.9 mph - N/A Fog Light Freezing Fog
7:57 AM 28.0 °F 22.8 °F 25.0 °F 88% 30.38 in 0.2 mi NE 4.6 mph - N/A Fog Light Freezing Fog
8:13 AM 28.0 °F 21.7 °F 24.1 °F 85% 30.38 in 0.2 mi NNE 5.8 mph - N/A Fog Light Freezing Fog
8:57 AM 28.0 °F 20.8 °F 25.0 °F 88% 30.39 in 0.2 mi NNE 6.9 mph - N/A Fog Light Freezing Fog
9:15 AM 28.9 °F 22.8 °F 26.1 °F 89% 30.38 in 0.5 mi NE 5.8 mph - N/A Fog Light Freezing Fog
9:40 AM 28.9 °F 22.8 °F 26.1 °F 89% 30.37 in 0.2 mi NE 5.8 mph - N/A Fog Light Freezing Fog
9:48 AM 28.9 °F 22.8 °F 26.1 °F 89% 30.38 in 0.5 mi East 5.8 mph - N/A Fog Light Freezing Fog
9:55 AM 28.4 °F 23.3 °F 26.6 °F 93% 30.38 in 0.8 mi NE 4.6 mph - N/A   Overcast
9:57 AM 28.9 °F 25.2 °F 27.0 °F 92% 30.39 in 1.0 mi Variable 3.5 mph - N/A   Overcast
10:17 AM 28.9 °F 22.8 °F 27.0 °F 92% 30.38 in 3.0 mi ENE 5.8 mph - N/A   Overcast
10:38 AM 28.9 °F 21.9 °F 27.0 °F 92% 30.38 in 4.0 mi NE 6.9 mph - N/A   Overcast
10:57 AM 30.0 °F 23.2 °F 28.0 °F 92% 30.40 in 9.0 mi ENE 6.9 mph - N/A   Overcast
11:57 AM 32.0 °F 25.6 °F 30.9 °F 96% 30.38 in 10.0 mi Variable 6.9 mph - N/A   Overcast
12:33 PM 32.0 °F 26.4 °F 30.0 °F 92% 30.36 in 10.0 mi NE 5.8 mph - N/A   Scattered Clouds
12:57 PM 33.1 °F 26.9 °F 30.0 °F 89% 30.35 in 10.0 mi NNE 6.9 mph - N/A   Scattered Clouds
1:57 PM 37.9 °F 32.7 °F 30.9 °F 76% 30.31 in 10.0 mi NE 6.9 mph - N/A   Clear
2:57 PM 39.9 °F 35.8 °F 30.9 °F 70% 30.28 in 10.0 mi NNE 5.8 mph - N/A   Clear
3:57 PM 37.9 °F 33.5 °F 30.9 °F 76% 30.30 in 10.0 mi NNE 5.8 mph - N/A   Clear
4:57 PM 33.1 °F 27.7 °F 28.9 °F 85% 30.31 in 10.0 mi ENE 5.8 mph - N/A   Clear
5:17 PM 30.9 °F - 28.9 °F 92% 30.32 in 6.0 mi Calm Calm - N/A   Scattered Clouds
5:25 PM 30.9 °F 26.2 °F 28.9 °F 92% 30.32 in 1.5 mi North 4.6 mph - N/A   Partly Cloudy
5:29 PM 30.0 °F 26.5 °F 28.9 °F 96% 30.32 in 0.2 mi NNE 3.5 mph - N/A Fog Light Freezing Fog
5:37 PM 30.0 °F 26.5 °F 28.9 °F 96% 30.31 in 0.2 mi North 3.5 mph - N/A Fog Light Freezing Fog
5:57 PM 30.0 °F 26.5 °F 28.9 °F 96% 30.33 in 0.2 mi NNE 3.5 mph - N/A Fog Light Freezing Fog
6:57 PM 28.0 °F - 26.1 °F 92% 30.34 in 0.2 mi Calm Calm - N/A Fog Light Freezing Fog
7:13 PM 28.0 °F - 26.1 °F 92% 30.32 in 0.5 mi Calm Calm - N/A Fog Light Freezing Fog
7:40 PM 27.0 °F 23.0 °F 25.0 °F 92% 30.34 in 0.2 mi NE 3.5 mph - N/A Fog Light Freezing Fog
7:57 PM 27.0 °F - 25.0 °F 92% 30.35 in 0.8 mi Calm Calm - N/A   Mist
8:00 PM 27.0 °F - 24.1 °F 89% 30.33 in 2.5 mi Calm Calm - N/A   Mostly Cloudy
8:05 PM 27.0 °F - 24.1 °F 89% 30.33 in 7.0 mi Calm Calm - N/A   Scattered Clouds
8:57 PM 25.0 °F - 23.0 °F 92% 30.36 in 9.0 mi Calm Calm - N/A   Clear
9:57 PM 24.1 °F - 21.0 °F 88% 30.36 in 10.0 mi Calm Calm - N/A   Clear
10:57 PM 24.1 °F - 21.0 °F 88% 30.35 in 10.0 mi Calm Calm - N/A   Clear
11:57 PM 23.0 °F - 19.9 °F 88% 30.34 in 10.0 mi Calm Calm - N/A   Clear